Terminal Aerodrome Forecast
Issued by NWS Omaha/Valley, NE

Home | Current Version | Previous Version | Text Only | Print | Product List | Glossary On
Versions: 1 2 3 4 5 6 7 8 9 10 11 12 13 14 15 16 17 18 19 20 21 22 23 24 25 26 27 28 29 30 31 32 33 34 35 36 37 38 39 40 41 42 43 44 45 46
000
FTUS43 KOAX 290524
TAFLNK
TAF
KLNK 290524Z 2906/3006 16008KT P6SM SCT040 BKN080
      TEMPO 2906/2910 5SM -TSRA BKN025CB
     FM291400 21008KT P6SM BKN035 PROB30 2916/2922 VRB12KT 5SM -TSRA
      BKN030CB
     FM300000 34008KT P6SM BKN070=

USA.gov is the U.S. government's official web portal to all federal, state and local government web resources and services.